Time,TemperatureF,DewpointF,PressureIn,WindDirection,WindDirectionDegrees,WindSpeedMPH,WindSpeedGustMPH,Humidity,HourlyPrecipIn,Conditions,Clouds,dailyrainin,SoftwareType,DateUTC
2013-12-22 00:03:00,17.5,14.6,30.01,NE,38,11.5,11.5,88,0.00,CLR,,0.00,WeatherDisplay:10.37,2013-12-22 06:03:00,
2013-12-22 00:08:00,17.5,14.6,30.01,NE,38,7.0,7.0,88,0.00,CLR,,0.00,WeatherDisplay:10.37,2013-12-22 06:08:00,
2013-12-22 00:13:00,17.7,14.8,30.01,NE,52,7.0,7.0,88,0.00,CLR,,0.00,WeatherDisplay:10.37,2013-12-22 06:13:00,
2013-12-22 00:18:00,17.7,14.8,30.01,NE,42,6.9,6.9,88,0.00,CLR,,0.00,WeatherDisplay:10.37,2013-12-22 06:18:00,
2013-12-22 00:23:00,17.7,14.8,30.01,NE,55,9.2,9.2,88,0.00,CLR,,0.00,WeatherDisplay:10.37,2013-12-22 06:23:00,
2013-12-22 00:28:00,17.7,14.8,30.00,NNE,33,8.1,8.1,88,0.00,CLR,,0.00,WeatherDisplay:10.37,2013-12-22 06:28:00,
2013-12-22 00:33:00,17.8,15.1,30.01,NE,38,5.8,5.8,89,0.00,CLR,,0.00,WeatherDisplay:10.37,2013-12-22 06:33:00,
2013-12-22 00:38:00,17.8,15.1,30.01,NNE,22,6.9,6.9,89,0.00,CLR,,0.00,WeatherDisplay:10.37,2013-12-22 06:38:00,
2013-12-22 00:43:00,17.8,15.1,30.00,North,10,9.2,9.2,89,0.00,CLR,,0.00,WeatherDisplay:10.37,2013-12-22 06:43:00,
2013-12-22 00:48:00,18.0,15.3,30.00,NE,47,6.9,6.9,89,0.00,CLR,,0.00,WeatherDisplay:10.37,2013-12-22 06:48:00,
2013-12-22 00:53:00,18.0,15.3,30.00,NE,36,8.1,8.1,89,0.00,CLR,,0.00,WeatherDisplay:10.37,2013-12-22 06:53:00,
2013-12-22 00:58:00,18.0,15.3,30.00,NE,44,5.8,5.8,89,0.00,CLR,,0.00,WeatherDisplay:10.37,2013-12-22 06:58:00,
2013-12-22 01:00:00,18.0,15.3,30.00,NE,35,4.6,4.6,89,0.00,CLR,,0.00,WeatherDisplay:10.37,2013-12-22 07:00:00,
2013-12-22 01:05:00,18.1,15.4,30.00,NE,41,7.0,7.0,89,0.00,CLR,,0.00,WeatherDisplay:10.37,2013-12-22 07:05:00,
2013-12-22 01:10:00,18.1,15.4,30.00,NE,52,7.0,7.0,89,0.00,CLR,,0.00,WeatherDisplay:10.37,2013-12-22 07:10:00,
2013-12-22 01:15:00,18.1,15.4,30.00,NE,37,10.4,10.4,89,0.00,CLR,,0.00,WeatherDisplay:10.37,2013-12-22 07:15:00,
2013-12-22 01:20:00,18.1,15.4,30.00,NE,44,9.0,9.0,89,0.00,CLR,,0.00,WeatherDisplay:10.37,2013-12-22 07:20:00,
2013-12-22 01:25:00,18.3,15.6,30.00,NE,39,6.0,6.0,89,0.00,CLR,,0.00,WeatherDisplay:10.37,2013-12-22 07:25:00,
2013-12-22 01:30:00,18.3,15.6,30.00,NE,38,9.2,9.2,89,0.00,CLR,,0.00,WeatherDisplay:10.37,2013-12-22 07:30:00,
2013-12-22 01:35:00,18.3,15.6,30.00,NE,38,7.0,7.0,89,0.00,CLR,,0.00,WeatherDisplay:10.37,2013-12-22 07:35:00,
2013-12-22 01:40:00,18.3,15.6,30.00,NE,41,9.2,9.2,89,0.00,CLR,,0.00,WeatherDisplay:10.37,2013-12-22 07:40:00,
2013-12-22 01:45:00,18.4,15.7,30.00,ENE,57,7.0,7.0,89,0.00,CLR,,0.00,WeatherDisplay:10.37,2013-12-22 07:45:00,
2013-12-22 01:50:00,18.4,15.7,30.00,NNE,30,6.9,6.9,89,0.00,CLR,,0.00,WeatherDisplay:10.37,2013-12-22 07:50:00,
2013-12-22 01:55:00,18.6,15.9,30.01,NE,34,8.1,8.1,89,0.00,CLR,,0.00,WeatherDisplay:10.37,2013-12-22 07:55:00,
2013-12-22 02:00:00,18.6,15.9,30.01,NNE,31,7.0,7.0,89,0.00,CLR,,0.00,WeatherDisplay:10.37,2013-12-22 08:00:00,
2013-12-22 02:05:00,18.6,15.9,30.01,NE,50,4.6,4.6,89,0.00,CLR,,0.00,WeatherDisplay:10.37,2013-12-22 08:05:00,
2013-12-22 02:10:00,18.6,15.9,30.01,NE,52,6.0,6.0,89,0.00,CLR,,0.00,WeatherDisplay:10.37,2013-12-22 08:10:00,
2013-12-22 02:15:00,18.8,16.1,30.01,NE,41,6.0,6.0,89,0.00,CLR,,0.00,WeatherDisplay:10.37,2013-12-22 08:15:00,
2013-12-22 02:20:00,18.8,16.1,30.01,NE,48,5.0,5.0,89,0.00,CLR,,0.00,WeatherDisplay:10.37,2013-12-22 08:20:00,
2013-12-22 02:25:00,18.8,16.1,30.01,NE,46,5.8,5.8,89,0.00,CLR,,0.00,WeatherDisplay:10.37,2013-12-22 08:25:00,
2013-12-22 02:30:00,18.8,16.1,30.02,NE,44,5.8,5.8,89,0.00,CLR,,0.00,WeatherDisplay:10.37,2013-12-22 08:30:00,
2013-12-22 02:35:00,18.8,16.1,30.01,NE,50,4.6,4.6,89,0.00,CLR,,0.00,WeatherDisplay:10.37,2013-12-22 08:35:00,
2013-12-22 02:40:00,18.8,16.1,30.01,NE,50,5.8,5.8,89,0.00,CLR,,0.00,WeatherDisplay:10.37,2013-12-22 08:40:00,
2013-12-22 02:45:00,18.8,16.1,30.01,NNE,33,6.9,6.9,89,0.00,CLR,,0.00,WeatherDisplay:10.37,2013-12-22 08:45:00,
2013-12-22 02:50:00,18.8,16.1,30.01,NE,43,8.1,8.1,89,0.00,CLR,,0.00,WeatherDisplay:10.37,2013-12-22 08:50:00,
2013-12-22 02:55:00,18.8,16.1,30.01,NE,40,4.6,4.6,89,0.00,CLR,,0.00,WeatherDisplay:10.37,2013-12-22 08:55:00,
2013-12-22 03:00:00,18.8,16.1,30.02,NNE,21,4.6,4.6,89,0.00,CLR,,0.00,WeatherDisplay:10.37,2013-12-22 09:00:00,
2013-12-22 03:05:00,18.8,16.1,30.02,NNE,31,5.0,5.0,89,0.00,CLR,,0.00,WeatherDisplay:10.37,2013-12-22 09:05:00,
2013-12-22 03:10:00,18.8,16.1,30.02,NNE,18,8.1,8.1,89,0.00,CLR,,0.00,WeatherDisplay:10.37,2013-12-22 09:10:00,
2013-12-22 03:15:00,18.8,16.1,30.01,NNE,27,6.9,6.9,89,0.00,CLR,,0.00,WeatherDisplay:10.37,2013-12-22 09:15:00,
2013-12-22 03:20:00,18.8,16.1,30.02,NE,48,6.9,6.9,89,0.00,CLR,,0.00,WeatherDisplay:10.37,2013-12-22 09:20:00,
2013-12-22 03:25:00,18.6,15.9,30.02,NE,44,4.0,4.0,89,0.00,CLR,,0.00,WeatherDisplay:10.37,2013-12-22 09:25:00,
2013-12-22 03:30:00,18.6,15.9,30.02,NE,44,3.5,3.5,89,0.00,CLR,,0.00,WeatherDisplay:10.37,2013-12-22 09:30:00,
2013-12-22 03:35:00,18.6,15.9,30.02,NE,44,3.5,3.5,89,0.00,CLR,,0.00,WeatherDisplay:10.37,2013-12-22 09:35:00,
2013-12-22 03:40:00,18.6,15.9,30.01,NE,42,4.0,4.0,89,0.00,CLR,,0.00,WeatherDisplay:10.37,2013-12-22 09:40:00,
2013-12-22 03:45:00,18.6,15.9,30.01,NNE,23,7.0,7.0,89,0.00,CLR,,0.00,WeatherDisplay:10.37,2013-12-22 09:45:00,
2013-12-22 03:50:00,18.6,15.6,30.01,NNE,23,4.6,4.6,88,0.00,CLR,,0.00,WeatherDisplay:10.37,2013-12-22 09:50:00,
2013-12-22 03:55:00,18.6,15.9,30.02,NNE,21,4.6,4.6,89,0.00,CLR,,0.00,WeatherDisplay:10.37,2013-12-22 09:55:00,
2013-12-22 04:00:00,18.6,15.9,30.01,NNE,13,6.9,6.9,89,0.00,CLR,,0.00,WeatherDisplay:10.37,2013-12-22 10:00:00,
2013-12-22 04:05:00,18.6,15.9,30.01,North,357,9.2,9.2,89,0.00,CLR,,0.00,WeatherDisplay:10.37,2013-12-22 10:05:00,
2013-12-22 04:10:00,18.6,15.9,30.02,North,3,9.0,9.0,89,0.00,CLR,,0.00,WeatherDisplay:10.37,2013-12-22 10:10:00,
2013-12-22 04:15:00,18.6,15.9,30.02,North,356,5.8,5.8,89,0.00,CLR,,0.00,WeatherDisplay:10.37,2013-12-22 10:15:00,
2013-12-22 04:20:00,18.6,15.9,30.02,North,357,4.6,4.6,89,0.00,CLR,,0.00,WeatherDisplay:10.37,2013-12-22 10:20:00,
2013-12-22 04:25:00,18.6,15.9,30.02,North,356,5.0,5.0,89,0.00,CLR,,0.00,WeatherDisplay:10.37,2013-12-22 10:25:00,
2013-12-22 04:30:00,18.6,15.9,30.02,North,357,2.3,2.3,89,0.00,CLR,,0.00,WeatherDisplay:10.37,2013-12-22 10:30:00,
2013-12-22 04:35:00,18.6,15.9,30.02,North,360,8.1,8.1,89,0.00,CLR,,0.00,WeatherDisplay:10.37,2013-12-22 10:35:00,
2013-12-22 04:40:00,18.6,15.9,30.01,North,351,10.0,10.0,89,0.00,CLR,,0.00,WeatherDisplay:10.37,2013-12-22 10:40:00,
2013-12-22 04:45:00,18.6,15.9,30.01,NNW,347,8.1,8.1,89,0.00,CLR,,0.00,WeatherDisplay:10.37,2013-12-22 10:45:00,
2013-12-22 04:50:00,18.6,15.9,30.01,North,358,7.0,7.0,89,0.00,CLR,,0.00,WeatherDisplay:10.37,2013-12-22 10:50:00,
2013-12-22 04:55:00,18.6,15.9,30.01,North,356,9.2,9.2,89,0.00,CLR,,0.00,WeatherDisplay:10.37,2013-12-22 10:55:00,
2013-12-22 05:00:00,18.6,15.9,30.01,North,11,11.0,11.0,89,0.00,CLR,,0.00,WeatherDisplay:10.37,2013-12-22 11:00:00,
2013-12-22 05:05:00,18.6,15.9,30.01,North,354,9.0,9.0,89,0.00,CLR,,0.00,WeatherDisplay:10.37,2013-12-22 11:05:00,
2013-12-22 05:10:00,18.6,15.9,30.01,North,356,8.1,8.1,89,0.00,CLR,,0.00,WeatherDisplay:10.37,2013-12-22 11:10:00,
2013-12-22 05:15:00,18.6,15.9,30.01,North,2,5.0,5.0,89,0.00,CLR,,0.00,WeatherDisplay:10.37,2013-12-22 11:15:00,
2013-12-22 05:20:00,18.6,16.2,30.01,NNE,13,6.9,6.9,90,0.00,CLR,,0.00,WeatherDisplay:10.37,2013-12-22 11:20:00,
2013-12-22 05:25:00,18.6,16.2,30.01,North,9,6.9,6.9,90,0.00,CLR,,0.00,WeatherDisplay:10.37,2013-12-22 11:25:00,
2013-12-22 05:30:00,18.6,16.2,30.01,NNE,13,5.0,5.0,90,0.00,CLR,,0.00,WeatherDisplay:10.37,2013-12-22 11:30:00,
2013-12-22 05:35:00,18.6,16.2,30.01,North,7,5.8,5.8,90,0.00,CLR,,0.00,WeatherDisplay:10.37,2013-12-22 11:35:00,
2013-12-22 05:40:00,18.6,16.2,30.02,North,360,6.9,6.9,90,0.00,CLR,,0.00,WeatherDisplay:10.37,2013-12-22 11:40:00,
2013-12-22 05:45:00,18.6,16.2,30.02,North,10,7.0,7.0,90,0.00,CLR,,0.00,WeatherDisplay:10.37,2013-12-22 11:45:00,
2013-12-22 05:50:00,18.8,16.4,30.02,NNE,19,8.1,8.1,90,0.00,CLR,,0.00,WeatherDisplay:10.37,2013-12-22 11:50:00,
2013-12-22 05:55:00,18.8,16.4,30.01,NNE,13,6.9,6.9,90,0.00,CLR,,0.00,WeatherDisplay:10.37,2013-12-22 11:55:00,
2013-12-22 06:00:00,18.8,16.4,30.01,North,3,4.6,4.6,90,0.00,CLR,,0.00,WeatherDisplay:10.37,2013-12-22 12:00:00,
2013-12-22 06:05:00,18.9,16.5,30.02,North,358,10.4,10.4,90,0.00,CLR,,0.00,WeatherDisplay:10.37,2013-12-22 12:05:00,
2013-12-22 06:10:00,18.9,16.5,30.02,NNE,28,10.4,10.4,90,0.00,CLR,,0.00,WeatherDisplay:10.37,2013-12-22 12:10:00,
2013-12-22 06:15:00,19.1,16.7,30.02,NNE,26,9.2,9.2,90,0.00,CLR,,0.00,WeatherDisplay:10.37,2013-12-22 12:15:00,
2013-12-22 06:20:00,19.1,16.9,30.02,NNE,27,9.2,9.2,91,0.00,CLR,,0.00,WeatherDisplay:10.37,2013-12-22 12:20:00,
2013-12-22 06:25:00,19.2,17.0,30.02,NNE,26,9.2,9.2,91,0.00,CLR,,0.00,WeatherDisplay:10.37,2013-12-22 12:25:00,
2013-12-22 06:30:00,19.2,17.0,30.02,North,3,8.1,8.1,91,0.00,CLR,,0.00,WeatherDisplay:10.37,2013-12-22 12:30:00,
2013-12-22 06:35:00,19.4,17.2,30.02,North,360,11.5,11.5,91,0.00,CLR,,0.00,WeatherDisplay:10.37,2013-12-22 12:35:00,
2013-12-22 06:40:00,19.4,17.2,30.02,NNE,25,9.2,9.2,91,0.00,CLR,,0.00,WeatherDisplay:10.37,2013-12-22 12:40:00,
2013-12-22 06:45:00,19.5,17.3,30.02,NNE,16,9.2,9.2,91,0.00,CLR,,0.00,WeatherDisplay:10.37,2013-12-22 12:45:00,
2013-12-22 06:50:00,19.5,17.3,30.02,NNE,17,10.4,10.4,91,0.00,CLR,,0.00,WeatherDisplay:10.37,2013-12-22 12:50:00,
2013-12-22 06:55:00,19.7,17.5,30.02,North,354,10.4,10.4,91,0.00,CLR,,0.00,WeatherDisplay:10.37,2013-12-22 12:55:00,
2013-12-22 07:00:00,19.7,17.5,30.02,NE,41,9.2,9.2,91,0.00,CLR,,0.00,WeatherDisplay:10.37,2013-12-22 13:00:00,
2013-12-22 07:05:00,19.7,17.5,30.02,NNE,19,5.0,5.0,91,0.00,CLR,,0.00,WeatherDisplay:10.37,2013-12-22 13:05:00,
2013-12-22 07:10:00,19.7,17.5,30.02,North,4,10.4,10.4,91,0.00,CLR,,0.00,WeatherDisplay:10.37,2013-12-22 13:10:00,
2013-12-22 07:15:00,19.9,17.7,30.03,NNE,24,11.0,11.0,91,0.00,CLR,,0.00,WeatherDisplay:10.37,2013-12-22 13:15:00,
2013-12-22 07:20:00,19.9,17.7,30.03,NNE,32,9.0,9.0,91,0.00,CLR,,0.00,WeatherDisplay:10.37,2013-12-22 13:20:00,
2013-12-22 07:25:00,19.9,17.7,30.03,NE,38,9.2,9.2,91,0.00,CLR,,0.00,WeatherDisplay:10.37,2013-12-22 13:25:00,
2013-12-22 07:30:00,19.9,17.7,30.03,NE,35,8.1,8.1,91,0.00,CLR,,0.00,WeatherDisplay:10.37,2013-12-22 13:30:00,
2013-12-22 07:35:00,20.0,17.8,30.03,NE,40,9.2,9.2,91,0.00,CLR,,0.00,WeatherDisplay:10.37,2013-12-22 13:35:00,
2013-12-22 07:40:00,20.0,17.8,30.03,NNE,29,8.1,8.1,91,0.00,CLR,,0.00,WeatherDisplay:10.37,2013-12-22 13:40:00,
2013-12-22 07:45:00,20.2,18.0,30.03,NE,42,7.0,7.0,91,0.00,CLR,,0.00,WeatherDisplay:10.37,2013-12-22 13:45:00,
2013-12-22 07:50:00,20.2,18.0,30.03,North,11,8.1,8.1,91,0.00,CLR,,0.00,WeatherDisplay:10.37,2013-12-22 13:50:00,
2013-12-22 07:55:00,20.2,18.0,30.03,North,1,9.2,9.2,91,0.00,CLR,,0.00,WeatherDisplay:10.37,2013-12-22 13:55:00,
2013-12-22 08:00:00,20.2,18.0,30.03,North,354,10.4,10.4,91,0.00,CLR,,0.00,WeatherDisplay:10.37,2013-12-22 14:00:00,
2013-12-22 08:05:00,20.2,18.0,30.03,North,358,9.2,9.2,91,0.00,CLR,,0.00,WeatherDisplay:10.37,2013-12-22 14:05:00,
2013-12-22 08:10:00,20.0,17.8,30.03,NNE,16,13.8,13.8,91,0.00,CLR,,0.00,WeatherDisplay:10.37,2013-12-22 14:10:00,
2013-12-22 08:15:00,19.9,17.4,30.03,North,10,9.2,9.2,90,0.00,CLR,,0.00,WeatherDisplay:10.37,2013-12-22 14:15:00,
2013-12-22 08:20:00,19.7,17.2,30.03,NNW,346,13.0,13.0,90,0.00,CLR,,0.00,WeatherDisplay:10.37,2013-12-22 14:20:00,
2013-12-22 08:25:00,19.7,17.2,30.03,NNE,16,14.0,14.0,90,0.00,CLR,,0.00,WeatherDisplay:10.37,2013-12-22 14:25:00,
2013-12-22 08:30:00,19.5,16.8,30.03,North,4,14.0,14.0,89,0.00,CLR,,0.00,WeatherDisplay:10.37,2013-12-22 14:30:00,
2013-12-22 08:35:00,19.5,16.8,30.04,NNW,346,11.5,11.5,89,0.00,CLR,,0.00,WeatherDisplay:10.37,2013-12-22 14:35:00,
2013-12-22 08:40:00,19.5,16.8,30.04,North,2,13.8,13.8,89,0.00,CLR,,0.00,WeatherDisplay:10.37,2013-12-22 14:40:00,
2013-12-22 08:45:00,19.4,16.7,30.03,North,359,10.4,10.4,89,0.00,CLR,,0.00,WeatherDisplay:10.37,2013-12-22 14:45:00,
2013-12-22 08:50:00,19.4,16.7,30.03,North,359,11.5,11.5,89,0.00,CLR,,0.00,WeatherDisplay:10.37,2013-12-22 14:50:00,
2013-12-22 08:55:00,19.4,16.4,30.03,North,3,8.1,8.1,88,0.00,CLR,,0.00,WeatherDisplay:10.37,2013-12-22 14:55:00,
2013-12-22 09:00:00,19.4,16.4,30.03,NE,36,10.4,10.4,88,0.00,CLR,,0.00,WeatherDisplay:10.37,2013-12-22 15:00:00,
2013-12-22 09:05:00,19.4,16.4,30.03,North,356,10.0,10.0,88,0.00,CLR,,0.00,WeatherDisplay:10.37,2013-12-22 15:05:00,
2013-12-22 09:10:00,19.4,16.4,30.03,North,358,11.5,11.5,88,0.00,CLR,,0.00,WeatherDisplay:10.37,2013-12-22 15:10:00,
2013-12-22 09:15:00,19.5,16.5,30.03,NNE,12,12.7,12.7,88,0.00,CLR,,0.00,WeatherDisplay:10.37,2013-12-22 15:15:00,
2013-12-22 09:20:00,19.5,16.5,30.03,North,353,11.5,11.5,88,0.00,CLR,,0.00,WeatherDisplay:10.37,2013-12-22 15:20:00,
2013-12-22 09:25:00,19.7,16.7,30.03,North,9,4.0,4.0,88,0.00,CLR,,0.00,WeatherDisplay:10.37,2013-12-22 15:25:00,
2013-12-22 09:30:00,19.7,16.7,30.03,NNE,16,12.7,12.7,88,0.00,CLR,,0.00,WeatherDisplay:10.37,2013-12-22 15:30:00,
2013-12-22 09:35:00,19.7,16.7,30.03,North,349,11.0,11.0,88,0.00,CLR,,0.00,WeatherDisplay:10.37,2013-12-22 15:35:00,
2013-12-22 09:40:00,19.7,16.7,30.03,North,7,10.4,10.4,88,0.00,CLR,,0.00,WeatherDisplay:10.37,2013-12-22 15:40:00,
2013-12-22 09:45:00,19.7,16.7,30.03,North,358,6.9,6.9,88,0.00,CLR,,0.00,WeatherDisplay:10.37,2013-12-22 15:45:00,
2013-12-22 09:50:00,19.9,16.9,30.03,North,5,11.5,11.5,88,0.00,CLR,,0.00,WeatherDisplay:10.37,2013-12-22 15:50:00,
2013-12-22 09:55:00,19.9,16.9,30.04,North,358,8.0,8.0,88,0.00,CLR,,0.00,WeatherDisplay:10.37,2013-12-22 15:55:00,
2013-12-22 10:00:00,19.9,16.9,30.04,North,350,10.4,10.4,88,0.00,CLR,,0.00,WeatherDisplay:10.37,2013-12-22 16:00:00,
2013-12-22 10:05:00,19.9,16.9,30.04,North,358,8.1,8.1,88,0.00,CLR,,0.00,WeatherDisplay:10.37,2013-12-22 16:05:00,
2013-12-22 10:10:00,19.9,16.7,30.05,North,352,11.5,11.5,87,0.00,CLR,,0.00,WeatherDisplay:10.37,2013-12-22 16:10:00,
2013-12-22 10:15:00,20.0,16.8,30.04,NE,41,8.0,8.0,87,0.00,CLR,,0.00,WeatherDisplay:10.37,2013-12-22 16:15:00,
2013-12-22 10:20:00,20.0,16.8,30.04,NNE,29,4.0,4.0,87,0.00,CLR,,0.00,WeatherDisplay:10.37,2013-12-22 16:20:00,
2013-12-22 10:25:00,20.2,17.0,30.05,NNW,348,9.2,9.2,87,0.00,CLR,,0.00,WeatherDisplay:10.37,2013-12-22 16:25:00,
2013-12-22 10:30:00,20.2,17.0,30.05,North,9,6.0,6.0,87,0.00,CLR,,0.00,WeatherDisplay:10.37,2013-12-22 16:30:00,
2013-12-22 10:35:00,20.3,17.0,30.05,North,358,6.0,6.0,87,0.00,CLR,,0.00,WeatherDisplay:10.37,2013-12-22 16:35:00,
2013-12-22 10:40:00,20.5,17.5,30.05,North,360,6.9,6.9,88,0.00,CLR,,0.00,WeatherDisplay:10.37,2013-12-22 16:40:00,
2013-12-22 10:45:00,20.6,17.6,30.05,North,360,11.0,11.0,88,0.00,CLR,,0.00,WeatherDisplay:10.37,2013-12-22 16:45:00,
2013-12-22 10:50:00,20.6,17.6,30.05,North,3,10.4,10.4,88,0.00,CLR,,0.00,WeatherDisplay:10.37,2013-12-22 16:50:00,
2013-12-22 10:55:00,20.8,17.5,30.05,North,359,11.5,11.5,87,0.00,CLR,,0.00,WeatherDisplay:10.37,2013-12-22 16:55:00,
2013-12-22 11:00:00,21.0,17.7,30.05,North,350,7.0,7.0,87,0.00,CLR,,0.00,WeatherDisplay:10.37,2013-12-22 17:00:00,
2013-12-22 11:05:00,21.0,17.7,30.05,North,350,6.9,6.9,87,0.00,CLR,,0.00,WeatherDisplay:10.37,2013-12-22 17:05:00,
2013-12-22 11:10:00,21.1,17.8,30.05,North,357,9.2,9.2,87,0.00,CLR,,0.00,WeatherDisplay:10.37,2013-12-22 17:10:00,
2013-12-22 11:15:00,21.3,18.0,30.04,NNW,345,11.5,11.5,87,0.00,CLR,,0.00,WeatherDisplay:10.37,2013-12-22 17:15:00,
2013-12-22 11:20:00,21.4,18.1,30.05,NNW,340,8.1,8.1,87,0.00,CLR,,0.00,WeatherDisplay:10.37,2013-12-22 17:20:00,
2013-12-22 11:25:00,21.4,18.1,30.04,North,349,9.2,9.2,87,0.00,CLR,,0.00,WeatherDisplay:10.37,2013-12-22 17:25:00,
2013-12-22 11:30:00,21.6,18.3,30.04,NNW,343,6.9,6.9,87,0.00,CLR,,0.00,WeatherDisplay:10.37,2013-12-22 17:30:00,
2013-12-22 11:35:00,21.8,18.5,30.04,North,358,4.6,4.6,87,0.00,CLR,,0.00,WeatherDisplay:10.37,2013-12-22 17:35:00,
2013-12-22 11:40:00,21.8,18.5,30.04,North,2,5.8,5.8,87,0.00,CLR,,0.00,WeatherDisplay:10.37,2013-12-22 17:40:00,
2013-12-22 11:45:00,21.9,18.6,30.04,North,356,8.0,8.0,87,0.00,CLR,,0.00,WeatherDisplay:10.37,2013-12-22 17:45:00,
2013-12-22 11:50:00,21.9,18.6,30.04,North,7,8.1,8.1,87,0.00,CLR,,0.00,WeatherDisplay:10.37,2013-12-22 17:50:00,
2013-12-22 11:55:00,22.1,18.8,30.04,North,8,9.2,9.2,87,0.00,CLR,,0.00,WeatherDisplay:10.37,2013-12-22 17:55:00,
2013-12-22 12:00:00,22.1,18.8,30.04,NW,321,8.1,8.1,87,0.00,CLR,,0.00,WeatherDisplay:10.37,2013-12-22 18:00:00,
2013-12-22 12:05:00,22.2,18.9,30.04,North,355,11.0,11.0,87,0.00,CLR,,0.00,WeatherDisplay:10.37,2013-12-22 18:05:00,
2013-12-22 12:10:00,22.2,18.7,30.03,North,351,5.8,5.8,86,0.00,CLR,,0.00,WeatherDisplay:10.37,2013-12-22 18:10:00,
2013-12-22 12:15:00,22.4,18.8,30.03,North,360,9.2,9.2,86,0.00,CLR,,0.00,WeatherDisplay:10.37,2013-12-22 18:15:00,
2013-12-22 12:20:00,22.5,18.9,30.03,NNW,341,8.0,8.0,86,0.00,CLR,,0.00,WeatherDisplay:10.37,2013-12-22 18:20:00,
2013-12-22 12:25:00,22.5,18.9,30.03,NNW,348,8.1,8.1,86,0.00,CLR,,0.00,WeatherDisplay:10.37,2013-12-22 18:25:00,
2013-12-22 12:30:00,22.7,19.1,30.03,NNW,346,10.4,10.4,86,0.00,CLR,,0.00,WeatherDisplay:10.37,2013-12-22 18:30:00,
2013-12-22 12:35:00,22.7,19.1,30.03,NNW,342,6.9,6.9,86,0.00,CLR,,0.00,WeatherDisplay:10.37,2013-12-22 18:35:00,
2013-12-22 12:40:00,22.9,19.3,30.03,NNW,343,5.0,5.0,86,0.00,CLR,,0.00,WeatherDisplay:10.37,2013-12-22 18:40:00,
2013-12-22 12:45:00,22.9,19.3,30.03,NNW,342,4.6,4.6,86,0.00,CLR,,0.00,WeatherDisplay:10.37,2013-12-22 18:45:00,
2013-12-22 12:50:00,22.9,19.3,30.03,North,356,9.2,9.2,86,0.00,CLR,,0.00,WeatherDisplay:10.37,2013-12-22 18:50:00,
2013-12-22 12:55:00,23.0,19.4,30.02,North,358,8.1,8.1,86,0.00,CLR,,0.00,WeatherDisplay:10.37,2013-12-22 18:55:00,
2013-12-22 13:00:00,23.0,19.4,30.03,North,352,6.0,6.0,86,0.00,CLR,,0.00,WeatherDisplay:10.37,2013-12-22 19:00:00,
2013-12-22 13:05:00,23.0,19.4,30.03,North,351,8.1,8.1,86,0.00,CLR,,0.00,WeatherDisplay:10.37,2013-12-22 19:05:00,
2013-12-22 13:10:00,23.2,19.6,30.03,North,354,8.1,8.1,86,0.00,CLR,,0.00,WeatherDisplay:10.37,2013-12-22 19:10:00,
2013-12-22 13:15:00,23.2,19.9,30.03,North,354,6.0,6.0,87,0.00,CLR,,0.00,WeatherDisplay:10.37,2013-12-22 19:15:00,
2013-12-22 13:20:00,23.2,19.9,30.03,NNE,21,8.1,8.1,87,0.00,CLR,,0.00,WeatherDisplay:10.37,2013-12-22 19:20:00,
2013-12-22 13:25:00,23.3,20.0,30.03,North,6,6.9,6.9,87,0.00,CLR,,0.00,WeatherDisplay:10.37,2013-12-22 19:25:00,
2013-12-22 13:30:00,23.3,20.0,30.03,NNW,348,8.1,8.1,87,0.00,CLR,,0.00,WeatherDisplay:10.37,2013-12-22 19:30:00,
2013-12-22 13:35:00,23.3,20.0,30.03,NNE,21,6.9,6.9,87,0.00,CLR,,0.00,WeatherDisplay:10.37,2013-12-22 19:35:00,
2013-12-22 13:40:00,23.5,20.2,30.03,NNE,19,6.9,6.9,87,0.00,CLR,,0.00,WeatherDisplay:10.37,2013-12-22 19:40:00,
2013-12-22 13:45:00,23.5,20.2,30.03,NNE,13,12.0,12.0,87,0.00,CLR,,0.00,WeatherDisplay:10.37,2013-12-22 19:45:00,
2013-12-22 13:50:00,23.5,20.2,30.03,NE,38,7.0,7.0,87,0.00,CLR,,0.00,WeatherDisplay:10.37,2013-12-22 19:50:00,
2013-12-22 13:55:00,23.5,20.2,30.04,NE,43,6.9,6.9,87,0.00,CLR,,0.00,WeatherDisplay:10.37,2013-12-22 19:55:00,
2013-12-22 14:00:00,23.5,20.2,30.04,North,357,14.0,14.0,87,0.00,CLR,,0.00,WeatherDisplay:10.37,2013-12-22 20:00:00,
2013-12-22 14:05:00,23.5,20.2,30.04,NNE,26,8.0,8.0,87,0.00,CLR,,0.00,WeatherDisplay:10.37,2013-12-22 20:05:00,
2013-12-22 14:10:00,23.5,20.2,30.04,NE,37,10.4,10.4,87,0.00,CLR,,0.00,WeatherDisplay:10.37,2013-12-22 20:10:00,
2013-12-22 14:15:00,23.5,19.9,30.05,NE,44,11.5,11.5,86,0.00,CLR,,0.00,WeatherDisplay:10.37,2013-12-22 20:15:00,
2013-12-22 14:20:00,23.3,19.7,30.05,NNE,23,12.7,12.7,86,0.00,CLR,,0.00,WeatherDisplay:10.37,2013-12-22 20:20:00,
2013-12-22 14:25:00,23.3,19.7,30.05,NNE,33,6.9,6.9,86,0.00,CLR,,0.00,WeatherDisplay:10.37,2013-12-22 20:25:00,
2013-12-22 14:30:00,23.3,19.7,30.05,NNE,30,11.0,11.0,86,0.00,CLR,,0.00,WeatherDisplay:10.37,2013-12-22 20:30:00,
2013-12-22 14:35:00,23.3,19.7,30.05,NE,44,8.1,8.1,86,0.00,CLR,,0.00,WeatherDisplay:10.37,2013-12-22 20:35:00,
2013-12-22 14:40:00,23.3,20.0,30.05,NNE,30,10.0,10.0,87,0.00,CLR,,0.00,WeatherDisplay:10.37,2013-12-22 20:40:00,
2013-12-22 14:45:00,23.3,20.0,30.05,NE,36,9.2,9.2,87,0.00,CLR,,0.00,WeatherDisplay:10.37,2013-12-22 20:45:00,
2013-12-22 14:50:00,23.3,20.0,30.05,NNE,30,8.1,8.1,87,0.00,CLR,,0.00,WeatherDisplay:10.37,2013-12-22 20:50:00,
2013-12-22 14:55:00,23.2,19.9,30.06,NE,48,8.0,8.0,87,0.00,CLR,,0.00,WeatherDisplay:10.37,2013-12-22 20:55:00,
2013-12-22 15:00:00,23.2,19.9,30.06,NE,43,10.0,10.0,87,0.00,CLR,,0.00,WeatherDisplay:10.37,2013-12-22 21:00:00,
2013-12-22 15:05:00,23.2,19.9,30.06,NE,44,9.2,9.2,87,0.00,CLR,,0.00,WeatherDisplay:10.37,2013-12-22 21:05:00,
2013-12-22 15:10:00,23.0,19.4,30.06,NE,34,9.2,9.2,86,0.00,CLR,,0.00,WeatherDisplay:10.37,2013-12-22 21:10:00,
2013-12-22 15:15:00,23.0,19.4,30.07,NE,46,6.9,6.9,86,0.00,CLR,,0.00,WeatherDisplay:10.37,2013-12-22 21:15:00,
2013-12-22 15:20:00,22.9,19.3,30.07,NE,35,5.8,5.8,86,0.00,CLR,,0.00,WeatherDisplay:10.37,2013-12-22 21:20:00,
2013-12-22 15:25:00,22.9,19.6,30.07,NNE,29,6.9,6.9,87,0.00,CLR,,0.00,WeatherDisplay:10.37,2013-12-22 21:25:00,
2013-12-22 15:29:00,22.9,19.6,30.08,NNE,27,3.5,3.5,87,0.00,CLR,,0.00,WeatherDisplay:10.37,2013-12-22 21:29:00,
2013-12-22 15:34:00,22.7,19.4,30.08,NNE,13,7.0,7.0,87,0.00,CLR,,0.00,WeatherDisplay:10.37,2013-12-22 21:34:00,
2013-12-22 15:39:00,22.7,19.4,30.08,NNE,22,9.2,9.2,87,0.00,CLR,,0.00,WeatherDisplay:10.37,2013-12-22 21:39:00,
2013-12-22 15:44:00,22.5,19.2,30.08,NNE,12,15.0,15.0,87,0.00,CLR,,0.00,WeatherDisplay:10.37,2013-12-22 21:44:00,
2013-12-22 15:49:00,22.5,19.2,30.08,North,5,13.8,13.8,87,0.00,CLR,,0.00,WeatherDisplay:10.37,2013-12-22 21:49:00,
2013-12-22 15:54:00,22.4,19.1,30.08,NNE,23,9.2,9.2,87,0.00,CLR,,0.00,WeatherDisplay:10.37,2013-12-22 21:54:00,
2013-12-22 15:59:00,22.2,18.9,30.09,NNE,28,7.0,7.0,87,0.00,CLR,,0.00,WeatherDisplay:10.37,2013-12-22 21:59:00,
2013-12-22 16:04:00,22.2,18.9,30.09,North,8,9.2,9.2,87,0.00,CLR,,0.00,WeatherDisplay:10.37,2013-12-22 22:04:00,
2013-12-22 16:09:00,22.1,18.8,30.09,NNE,13,8.1,8.1,87,0.00,CLR,,0.00,WeatherDisplay:10.37,2013-12-22 22:09:00,
2013-12-22 16:14:00,22.1,18.8,30.09,NNE,26,10.4,10.4,87,0.00,CLR,,0.00,WeatherDisplay:10.37,2013-12-22 22:14:00,
2013-12-22 16:19:00,21.9,18.6,30.09,NNE,18,9.2,9.2,87,0.00,CLR,,0.00,WeatherDisplay:10.37,2013-12-22 22:19:00,
2013-12-22 16:24:00,21.8,18.5,30.10,NNE,19,9.2,9.2,87,0.00,CLR,,0.00,WeatherDisplay:10.37,2013-12-22 22:24:00,
2013-12-22 16:29:00,21.6,18.3,30.10,North,11,9.0,9.0,87,0.00,CLR,,0.00,WeatherDisplay:10.37,2013-12-22 22:29:00,
2013-12-22 16:34:00,21.6,18.3,30.10,NNE,20,8.1,8.1,87,0.00,CLR,,0.00,WeatherDisplay:10.37,2013-12-22 22:34:00,
2013-12-22 16:39:00,21.4,18.1,30.10,NNE,17,11.0,11.0,87,0.00,CLR,,0.00,WeatherDisplay:10.37,2013-12-22 22:39:00,
2013-12-22 16:44:00,21.3,18.0,30.10,NNE,29,9.2,9.2,87,0.00,CLR,,0.00,WeatherDisplay:10.37,2013-12-22 22:44:00,
2013-12-22 16:49:00,21.3,18.0,30.10,North,11,8.1,8.1,87,0.00,CLR,,0.00,WeatherDisplay:10.37,2013-12-22 22:49:00,
2013-12-22 16:54:00,21.1,17.8,30.11,NNE,13,5.0,5.0,87,0.00,CLR,,0.00,WeatherDisplay:10.37,2013-12-22 22:54:00,
2013-12-22 16:59:00,21.0,17.7,30.11,North,11,6.9,6.9,87,0.00,CLR,,0.00,WeatherDisplay:10.37,2013-12-22 22:59:00,
2013-12-22 17:04:00,21.0,17.7,30.11,NNE,21,4.6,4.6,87,0.00,CLR,,0.00,WeatherDisplay:10.37,2013-12-22 23:04:00,
2013-12-22 17:09:00,20.8,17.5,30.11,NNE,25,7.0,7.0,87,0.00,CLR,,0.00,WeatherDisplay:10.37,2013-12-22 23:09:00,
2013-12-22 17:14:00,20.8,17.5,30.11,NNE,17,4.6,4.6,87,0.00,CLR,,0.00,WeatherDisplay:10.37,2013-12-22 23:14:00,
2013-12-22 17:19:00,20.6,17.3,30.12,NNE,27,3.5,3.5,87,0.00,CLR,,0.00,WeatherDisplay:10.37,2013-12-22 23:19:00,
2013-12-22 17:24:00,20.6,17.3,30.12,NNE,15,3.5,3.5,87,0.00,CLR,,0.00,WeatherDisplay:10.37,2013-12-22 23:24:00,
2013-12-22 17:29:00,20.5,17.2,30.12,NNE,15,4.0,4.0,87,0.00,CLR,,0.00,WeatherDisplay:10.37,2013-12-22 23:29:00,
2013-12-22 17:34:00,20.5,17.2,30.12,North,1,5.8,5.8,87,0.00,CLR,,0.00,WeatherDisplay:10.37,2013-12-22 23:34:00,
2013-12-22 17:39:00,20.3,17.0,30.12,North,4,8.1,8.1,87,0.00,CLR,,0.00,WeatherDisplay:10.37,2013-12-22 23:39:00,
2013-12-22 17:44:00,20.3,17.0,30.12,North,2,6.0,6.0,87,0.00,CLR,,0.00,WeatherDisplay:10.37,2013-12-22 23:44:00,
2013-12-22 17:49:00,20.2,17.0,30.12,North,8,4.0,4.0,87,0.00,CLR,,0.00,WeatherDisplay:10.37,2013-12-22 23:49:00,
2013-12-22 17:54:00,20.2,17.2,30.12,NNE,16,4.6,4.6,88,0.00,CLR,,0.00,WeatherDisplay:10.37,2013-12-22 23:54:00,
2013-12-22 17:59:00,20.0,17.0,30.12,NNE,21,9.2,9.2,88,0.00,CLR,,0.00,WeatherDisplay:10.37,2013-12-22 23:59:00,
2013-12-22 18:04:00,19.9,16.9,30.13,NNE,21,3.5,3.5,88,0.00,CLR,,0.00,WeatherDisplay:10.37,2013-12-23 00:04:00,
2013-12-22 18:09:00,19.9,16.9,30.13,NNE,21,3.5,3.5,88,0.00,CLR,,0.00,WeatherDisplay:10.37,2013-12-23 00:09:00,
2013-12-22 18:14:00,19.7,16.7,30.13,NNE,15,3.5,3.5,88,0.00,CLR,,0.00,WeatherDisplay:10.37,2013-12-23 00:14:00,
2013-12-22 18:19:00,19.7,16.7,30.13,NNE,17,7.0,7.0,88,0.00,CLR,,0.00,WeatherDisplay:10.37,2013-12-23 00:19:00,
2013-12-22 18:24:00,19.7,16.7,30.13,North,9,7.0,7.0,88,0.00,CLR,,0.00,WeatherDisplay:10.37,2013-12-23 00:24:00,
2013-12-22 18:29:00,19.5,16.5,30.13,North,10,4.6,4.6,88,0.00,CLR,,0.00,WeatherDisplay:10.37,2013-12-23 00:29:00,
2013-12-22 18:34:00,19.5,16.5,30.13,North,10,3.5,3.5,88,0.00,CLR,,0.00,WeatherDisplay:10.37,2013-12-23 00:34:00,
2013-12-22 18:39:00,19.5,16.5,30.13,North,10,3.5,3.5,88,0.00,CLR,,0.00,WeatherDisplay:10.37,2013-12-23 00:39:00,
2013-12-22 18:44:00,19.4,16.4,30.13,North,10,3.5,3.5,88,0.00,CLR,,0.00,WeatherDisplay:10.37,2013-12-23 00:44:00,
2013-12-22 18:49:00,19.4,16.4,30.13,North,11,3.5,3.5,88,0.00,CLR,,0.00,WeatherDisplay:10.37,2013-12-23 00:49:00,
2013-12-22 18:54:00,19.2,16.2,30.13,North,11,4.6,4.6,88,0.00,CLR,,0.00,WeatherDisplay:10.37,2013-12-23 00:54:00,
2013-12-22 18:59:00,19.2,16.2,30.13,NNE,13,4.6,4.6,88,0.00,CLR,,0.00,WeatherDisplay:10.37,2013-12-23 00:59:00,
2013-12-22 19:04:00,19.1,16.1,30.14,NNE,12,4.0,4.0,88,0.00,CLR,,0.00,WeatherDisplay:10.37,2013-12-23 01:04:00,
2013-12-22 19:09:00,19.1,16.1,30.14,NNE,15,4.6,4.6,88,0.00,CLR,,0.00,WeatherDisplay:10.37,2013-12-23 01:09:00,
2013-12-22 19:14:00,18.9,15.9,30.14,NNE,15,6.9,6.9,88,0.00,CLR,,0.00,WeatherDisplay:10.37,2013-12-23 01:14:00,
2013-12-22 19:19:00,18.9,15.9,30.14,NNE,18,4.6,4.6,88,0.00,CLR,,0.00,WeatherDisplay:10.37,2013-12-23 01:19:00,
2013-12-22 19:24:00,18.8,15.8,30.14,NNE,22,7.0,7.0,88,0.00,CLR,,0.00,WeatherDisplay:10.37,2013-12-23 01:24:00,
2013-12-22 19:29:00,18.8,15.8,30.14,NNE,21,4.6,4.6,88,0.00,CLR,,0.00,WeatherDisplay:10.37,2013-12-23 01:29:00,
2013-12-22 19:34:00,18.6,15.6,30.14,NNE,21,4.0,4.0,88,0.00,CLR,,0.00,WeatherDisplay:10.37,2013-12-23 01:34:00,
2013-12-22 19:39:00,18.6,15.6,30.14,NNE,21,3.5,3.5,88,0.00,CLR,,0.00,WeatherDisplay:10.37,2013-12-23 01:39:00,
2013-12-22 19:44:00,18.4,15.4,30.14,NNE,23,4.0,4.0,88,0.00,CLR,,0.00,WeatherDisplay:10.37,2013-12-23 01:44:00,
2013-12-22 19:49:00,18.4,15.4,30.14,NNE,23,6.9,6.9,88,0.00,CLR,,0.00,WeatherDisplay:10.37,2013-12-23 01:49:00,
2013-12-22 19:54:00,18.4,15.4,30.14,NNE,23,5.0,5.0,88,0.00,CLR,,0.00,WeatherDisplay:10.37,2013-12-23 01:54:00,
2013-12-22 19:59:00,18.4,15.4,30.14,NNE,21,4.6,4.6,88,0.00,CLR,,0.00,WeatherDisplay:10.37,2013-12-23 01:59:00,
2013-12-22 20:04:00,18.4,15.4,30.15,NNE,21,4.0,4.0,88,0.00,CLR,,0.00,WeatherDisplay:10.37,2013-12-23 02:04:00,
2013-12-22 20:09:00,18.4,15.4,30.15,NNE,32,5.8,5.8,88,0.00,CLR,,0.00,WeatherDisplay:10.37,2013-12-23 02:09:00,
2013-12-22 20:14:00,18.4,15.4,30.15,NE,36,5.0,5.0,88,0.00,CLR,,0.00,WeatherDisplay:10.37,2013-12-23 02:14:00,
2013-12-22 20:19:00,18.3,15.3,30.15,NNE,29,3.5,3.5,88,0.00,CLR,,0.00,WeatherDisplay:10.37,2013-12-23 02:19:00,
2013-12-22 20:24:00,18.4,15.7,30.15,NE,35,5.0,5.0,89,0.00,CLR,,0.00,WeatherDisplay:10.37,2013-12-23 02:24:00,
2013-12-22 20:29:00,18.3,15.6,30.15,NE,38,4.6,4.6,89,0.00,CLR,,0.00,WeatherDisplay:10.37,2013-12-23 02:29:00,
2013-12-22 20:34:00,18.3,15.6,30.15,NE,35,4.6,4.6,89,0.00,CLR,,0.00,WeatherDisplay:10.37,2013-12-23 02:34:00,
2013-12-22 20:39:00,18.3,15.6,30.15,NE,40,3.5,3.5,89,0.00,CLR,,0.00,WeatherDisplay:10.37,2013-12-23 02:39:00,
2013-12-22 20:44:00,18.3,15.6,30.15,NE,40,3.5,3.5,89,0.00,CLR,,0.00,WeatherDisplay:10.37,2013-12-23 02:44:00,
2013-12-22 20:49:00,18.3,15.6,30.15,NE,40,3.5,3.5,89,0.00,CLR,,0.00,WeatherDisplay:10.37,2013-12-23 02:49:00,
2013-12-22 20:54:00,18.3,15.6,30.15,NE,40,5.8,5.8,89,0.00,CLR,,0.00,WeatherDisplay:10.37,2013-12-23 02:54:00,
2013-12-22 20:59:00,18.3,15.3,30.15,NE,39,4.6,4.6,88,0.00,CLR,,0.00,WeatherDisplay:10.37,2013-12-23 02:59:00,
2013-12-22 21:04:00,18.1,15.1,30.15,ENE,61,6.0,6.0,88,0.00,CLR,,0.00,WeatherDisplay:10.37,2013-12-23 03:04:00,
2013-12-22 21:09:00,18.1,15.1,30.16,NE,54,5.8,5.8,88,0.00,CLR,,0.00,WeatherDisplay:10.37,2013-12-23 03:09:00,
2013-12-22 21:14:00,18.1,15.1,30.16,NE,42,5.0,5.0,88,0.00,CLR,,0.00,WeatherDisplay:10.37,2013-12-23 03:14:00,
2013-12-22 21:19:00,18.1,15.1,30.16,NE,43,5.8,5.8,88,0.00,CLR,,0.00,WeatherDisplay:10.37,2013-12-23 03:19:00,
2013-12-22 21:24:00,18.1,15.1,30.16,NE,45,6.9,6.9,88,0.00,CLR,,0.00,WeatherDisplay:10.37,2013-12-23 03:24:00,
2013-12-22 21:29:00,18.0,15.0,30.16,NE,56,6.9,6.9,88,0.00,CLR,,0.00,WeatherDisplay:10.37,2013-12-23 03:29:00,
2013-12-22 21:34:00,18.0,15.0,30.16,ENE,63,4.6,4.6,88,0.00,CLR,,0.00,WeatherDisplay:10.37,2013-12-23 03:34:00,
2013-12-22 21:39:00,18.0,15.0,30.16,NE,50,4.6,4.6,88,0.00,CLR,,0.00,WeatherDisplay:10.37,2013-12-23 03:39:00,
2013-12-22 21:44:00,18.0,15.0,30.16,ENE,57,5.0,5.0,88,0.00,CLR,,0.00,WeatherDisplay:10.37,2013-12-23 03:44:00,
2013-12-22 21:49:00,18.0,15.0,30.16,NE,51,6.0,6.0,88,0.00,CLR,,0.00,WeatherDisplay:10.37,2013-12-23 03:49:00,
2013-12-22 21:54:00,17.8,14.8,30.17,ENE,61,5.8,5.8,88,0.00,CLR,,0.00,WeatherDisplay:10.37,2013-12-23 03:54:00,
2013-12-22 21:59:00,17.8,14.8,30.16,NE,52,9.0,9.0,88,0.00,CLR,,0.00,WeatherDisplay:10.37,2013-12-23 03:59:00,
2013-12-22 22:04:00,17.8,14.8,30.17,NE,54,8.1,8.1,88,0.00,CLR,,0.00,WeatherDisplay:10.37,2013-12-23 04:04:00,
2013-12-22 22:09:00,17.7,14.8,30.17,ENE,59,6.9,6.9,88,0.00,CLR,,0.00,WeatherDisplay:10.37,2013-12-23 04:09:00,
2013-12-22 22:14:00,17.7,14.8,30.16,ENE,78,6.9,6.9,88,0.00,CLR,,0.00,WeatherDisplay:10.37,2013-12-23 04:14:00,
2013-12-22 22:19:00,17.7,14.5,30.16,ENE,77,8.0,8.0,87,0.00,CLR,,0.00,WeatherDisplay:10.37,2013-12-23 04:19:00,
2013-12-22 22:24:00,17.5,14.3,30.16,ENE,69,10.4,10.4,87,0.00,CLR,,0.00,WeatherDisplay:10.37,2013-12-23 04:24:00,
2013-12-22 22:29:00,17.5,14.3,30.16,East,79,9.2,9.2,87,0.00,CLR,,0.00,WeatherDisplay:10.37,2013-12-23 04:29:00,
2013-12-22 22:34:00,17.3,14.1,30.17,ENE,67,9.2,9.2,87,0.00,CLR,,0.00,WeatherDisplay:10.37,2013-12-23 04:34:00,
2013-12-22 22:39:00,17.3,14.1,30.17,NE,50,6.0,6.0,87,0.00,CLR,,0.00,WeatherDisplay:10.37,2013-12-23 04:39:00,
2013-12-22 22:44:00,17.3,14.1,30.17,NE,49,5.8,5.8,87,0.00,CLR,,0.00,WeatherDisplay:10.37,2013-12-23 04:44:00,
2013-12-22 22:49:00,17.2,14.0,30.17,ENE,66,7.0,7.0,87,0.00,CLR,,0.00,WeatherDisplay:10.37,2013-12-23 04:49:00,
2013-12-22 22:54:00,17.2,14.0,30.17,NE,53,5.8,5.8,87,0.00,CLR,,0.00,WeatherDisplay:10.37,2013-12-23 04:54:00,
2013-12-22 22:59:00,17.2,14.0,30.18,NE,53,7.0,7.0,87,0.00,CLR,,0.00,WeatherDisplay:10.37,2013-12-23 04:59:00,
2013-12-22 23:01:00,17.2,14.0,30.18,ENE,61,9.2,9.2,87,0.00,CLR,,0.00,WeatherDisplay:10.37,2013-12-23 05:01:00,
2013-12-22 23:02:00,17.2,14.0,30.18,ENE,75,9.2,9.2,87,0.00,CLR,,0.00,WeatherDisplay:10.37,2013-12-23 05:02:00,
2013-12-22 23:05:00,17.0,13.8,30.18,ENE,67,5.0,9.0,87,0.00,CLR,CLR,0.00,WeatherDisplay:10.37,2013-12-23 05:05:00,
2013-12-22 23:10:00,17.0,13.8,30.18,ENE,69,10.4,10.4,87,0.00,CLR,,0.00,WeatherDisplay:10.37,2013-12-23 05:10:00,
2013-12-22 23:15:00,17.0,13.8,30.18,ENE,60,8.1,8.1,87,0.00,CLR,,0.00,WeatherDisplay:10.37,2013-12-23 05:15:00,
2013-12-22 23:20:00,17.0,13.8,30.18,East,87,11.5,11.5,87,0.00,CLR,,0.00,WeatherDisplay:10.37,2013-12-23 05:20:00,
2013-12-22 23:25:00,16.9,13.7,30.18,ENE,73,5.8,5.8,87,0.00,CLR,,0.00,WeatherDisplay:10.37,2013-12-23 05:25:00,
2013-12-22 23:30:00,16.9,13.7,30.18,ENE,69,7.0,7.0,87,0.00,CLR,,0.00,WeatherDisplay:10.37,2013-12-23 05:30:00,
2013-12-22 23:35:00,16.9,13.7,30.19,East,79,9.0,9.0,87,0.00,CLR,,0.00,WeatherDisplay:10.37,2013-12-23 05:35:00,
2013-12-22 23:40:00,16.9,13.7,30.19,East,80,10.4,10.4,87,0.00,CLR,,0.00,WeatherDisplay:10.37,2013-12-23 05:40:00,
2013-12-22 23:45:00,16.7,13.5,30.19,ENE,70,5.0,5.0,87,0.00,CLR,,0.00,WeatherDisplay:10.37,2013-12-23 05:45:00,
2013-12-22 23:50:00,16.7,13.5,30.19,ENE,73,5.8,5.8,87,0.00,CLR,,0.00,WeatherDisplay:10.37,2013-12-23 05:50:00,
2013-12-22 23:55:00,16.7,13.5,30.19,ENE,77,9.0,9.0,87,0.00,CLR,,0.00,WeatherDisplay:10.37,2013-12-23 05:55:00,